Princeton, MN

9:10 AM CST on November 17, 2019 (GMT -0600)
Princeton Municipal

Weather History for KPNM - August, 2019

Change the Weather History Date:

Saturday, August 31, 2019

  Actual Average Record
Temperature  
Mean Temperature 62 °F -  
Max Temperature 73 °F 76 °F 89 °F (2013)
Min Temperature 51 °F 53 °F 44 °F (2003)
Degree Days  
Heating Degree Days 3    
Growing Degree Days 12 (Base 50)    
Moisture  
Dew Point 53 °F    
Average Humidity 75    
Maximum Humidity 100    
Minimum Humidity 50    
Precipitation  
Precipitation 0.00 in - - ()
Sea Level Pressure  
Sea Level Pressure 30.24 in    
Wind  
Wind Speed 1 mph (SSE)    
Max Wind Speed 10 mph    
Max Gust Speed -    
Visibility 10 miles    
Events      
Averages and records for this station are not official NWS values.
T = Trace of Precipitation, MM = Missing Value Source: NWS Daily Summary

Daily Weather History Graph

Daily Weather History Graph

Search for Another Location

Airport or City:

Astronomy

Aug. 31, 2019 Rise Set
Actual Time 6:34 AM CDT 7:54 PM CDT
Civil Twilight 6:03 AM CDT 8:25 PM CDT
Nautical Twilight 5:26 AM CDT 9:01 PM CDT
Astronomical Twilight 4:46 AM CDT 9:41 PM CDT
Moon 7:52 AM CDT (8/31) 9:03 PM CDT (8/31)
Length of Visible Light 14h 21m
Length of Day
13h 20m
New Moon, 3% of the Moon is Illuminated
Aug 31
New Moon
Sep 5
First Quarter
Sep 13
Full
Sep 21
Last Quarter
Sep 28
New

Hourly Weather History & Observations

Time (CDT) Temp. Dew Point Humidity Pressure Visibility Wind Dir Wind Speed Gust Speed Precip Events Conditions
12:15 AM 51.8 °F 50.0 °F 94% 30.26 in 10.0 mi Calm Calm - N/A   Clear
12:16 AM 51.8 °F 50.0 °F 94% 30.26 in 10.0 mi Calm Calm - N/A   Clear
12:35 AM 51.8 °F 50.0 °F 94% 30.26 in 10.0 mi Calm Calm - N/A   Clear
12:36 AM 51.8 °F 50.0 °F 94% 30.26 in 10.0 mi Calm Calm - N/A   Clear
12:55 AM 51.8 °F 50.0 °F 94% 30.27 in 10.0 mi Calm Calm - N/A   Clear
1:00 AM 51.8 °F 50.0 °F 94% 30.27 in 10.0 mi Calm Calm - N/A   Clear
1:18 AM 51.8 °F 50.0 °F 94% 30.27 in 10.0 mi Calm Calm - N/A   Clear
1:36 AM 51.8 °F 50.0 °F 94% 30.27 in 10.0 mi Calm Calm - N/A   Clear
1:55 AM 51.8 °F 51.8 °F 100% 30.27 in 10.0 mi Calm Calm - N/A   Clear
1:56 AM 51.8 °F 51.8 °F 100% 30.27 in 10.0 mi Calm Calm - N/A   Clear
2:15 AM 53.6 °F 51.8 °F 94% 30.27 in 10.0 mi Calm Calm - N/A   Clear
2:16 AM 53.6 °F 51.8 °F 94% 30.27 in 10.0 mi Calm Calm - N/A   Clear
2:38 AM 53.6 °F 51.8 °F 94% 30.28 in 10.0 mi Calm Calm - N/A   Clear
2:57 AM 53.6 °F 51.8 °F 94% 30.27 in 10.0 mi Calm Calm - N/A   Clear
3:15 AM 51.8 °F 51.8 °F 100% 30.28 in 10.0 mi Calm Calm - N/A   Clear
3:35 AM 51.8 °F 50.0 °F 94% 30.27 in 10.0 mi Calm Calm - N/A   Clear
3:36 AM 51.8 °F 51.8 °F 100% 30.27 in 10.0 mi Calm Calm - N/A   Clear
3:55 AM 53.6 °F 51.8 °F 94% 30.27 in 10.0 mi Calm Calm - N/A   Clear
4:00 AM 53.6 °F 51.8 °F 94% 30.27 in 10.0 mi Calm Calm - N/A   Clear
4:18 AM 53.6 °F 51.8 °F 94% 30.27 in 10.0 mi Calm Calm - N/A   Clear
4:36 AM 53.6 °F 51.8 °F 94% 30.27 in 10.0 mi Calm Calm - N/A   Clear
4:55 AM 53.6 °F 51.8 °F 94% 30.27 in 10.0 mi Calm Calm - N/A   Clear
5:15 AM 53.6 °F 51.8 °F 94% 30.27 in 10.0 mi Calm Calm - N/A   Clear
5:39 AM 53.6 °F 51.8 °F 94% 30.27 in 10.0 mi Calm Calm - N/A   Clear
5:57 AM 53.6 °F 51.8 °F 94% 30.26 in 10.0 mi Calm Calm - N/A   Clear
6:15 AM 53.6 °F 51.8 °F 94% 30.26 in 10.0 mi Calm Calm - N/A   Clear
6:16 AM 53.6 °F 51.8 °F 94% 30.26 in 10.0 mi Calm Calm - N/A   Clear
6:35 AM 53.6 °F 51.8 °F 94% 30.27 in 10.0 mi Calm Calm - N/A   Clear
6:55 AM 55.4 °F 51.8 °F 88% 30.26 in 10.0 mi Calm Calm - N/A   Clear
7:18 AM 55.4 °F 51.8 °F 88% 30.26 in 10.0 mi Calm Calm - N/A   Clear
7:36 AM 55.4 °F 51.8 °F 88% 30.27 in 10.0 mi Calm Calm - N/A   Clear
7:55 AM 57.2 °F 51.8 °F 82% 30.27 in 10.0 mi Calm Calm - N/A   Clear
7:56 AM 57.2 °F 51.8 °F 82% 30.27 in 10.0 mi Calm Calm - N/A   Clear
8:15 AM 57.2 °F 51.8 °F 82% 30.27 in 10.0 mi Calm Calm - N/A   Clear
8:39 AM 59.0 °F 51.8 °F 77% 30.27 in 10.0 mi Calm Calm - N/A   Clear
8:57 AM 60.8 °F 51.8 °F 72% 30.27 in 10.0 mi Calm Calm - N/A   Clear
9:15 AM 60.8 °F 51.8 °F 72% 30.27 in 10.0 mi East 3.5 mph - N/A   Clear
9:16 AM 60.8 °F 51.8 °F 72% 30.27 in 10.0 mi Calm Calm - N/A   Clear
9:35 AM 60.8 °F 53.6 °F 77% 30.28 in 10.0 mi ESE 3.5 mph - N/A   Clear
9:55 AM 62.6 °F 53.6 °F 72% 30.27 in 10.0 mi ENE 3.5 mph - N/A   Clear
10:18 AM 62.6 °F 53.6 °F 72% 30.27 in 10.0 mi ESE 3.5 mph - N/A   Clear
10:36 AM 62.6 °F 53.6 °F 72% 30.27 in 10.0 mi SE 4.6 mph - N/A   Clear
10:55 AM 64.4 °F 53.6 °F 68% 30.27 in 10.0 mi SE 5.8 mph - N/A   Clear
11:15 AM 64.4 °F 55.4 °F 73% 30.28 in 10.0 mi SSE 4.6 mph - N/A   Clear
11:39 AM 68.0 °F 55.4 °F 64% 30.28 in 10.0 mi SSE 5.8 mph - N/A   Clear
11:57 AM 69.8 °F 55.4 °F 60% 30.27 in 10.0 mi SE 5.8 mph - N/A   Clear
12:15 PM 71.6 °F 55.4 °F 57% 30.27 in 10.0 mi South 4.6 mph - N/A   Clear
12:35 PM 71.6 °F 53.6 °F 53% 30.26 in 10.0 mi South 8.1 mph - N/A   Clear
12:36 PM 71.6 °F 53.6 °F 53% 30.26 in 10.0 mi South 8.1 mph - N/A   Clear
12:55 PM 71.6 °F 53.6 °F 53% 30.26 in 10.0 mi South 8.1 mph - N/A   Clear
1:00 PM 71.6 °F 53.6 °F 53% 30.26 in 10.0 mi South 6.9 mph - N/A   Clear
1:18 PM 71.6 °F 55.4 °F 57% 30.26 in 10.0 mi SSE 5.8 mph - N/A   Clear
1:36 PM 73.4 °F 53.6 °F 50% 30.26 in 10.0 mi SSE 9.2 mph - N/A   Clear
1:55 PM 71.6 °F 53.6 °F 53% 30.26 in 10.0 mi South 8.1 mph - N/A   Scattered Clouds
2:15 PM 71.6 °F 53.6 °F 53% 30.25 in 10.0 mi South 5.8 mph - N/A   Clear
2:16 PM 71.6 °F 53.6 °F 53% 30.25 in 10.0 mi South 5.8 mph - N/A   Clear
2:39 PM 71.6 °F 53.6 °F 53% 30.25 in 10.0 mi South 4.6 mph - N/A   Clear
2:57 PM 71.6 °F 53.6 °F 53% 30.24 in 10.0 mi SSE 9.2 mph - N/A   Scattered Clouds
3:15 PM 71.6 °F 53.6 °F 53% 30.23 in 10.0 mi South 5.8 mph - N/A   Mostly Cloudy
3:35 PM 71.6 °F 53.6 °F 53% 30.23 in 10.0 mi SSE 8.1 mph - N/A   Scattered Clouds
3:55 PM 73.4 °F 53.6 °F 50% 30.22 in 10.0 mi South 10.4 mph - N/A   Mostly Cloudy
4:00 PM 71.6 °F 53.6 °F 53% 30.22 in 10.0 mi South 5.8 mph - N/A   Mostly Cloudy
4:18 PM 73.4 °F 53.6 °F 50% 30.22 in 10.0 mi SSW 4.6 mph - N/A   Scattered Clouds
4:36 PM 73.4 °F 53.6 °F 50% 30.22 in 10.0 mi South 8.1 mph - N/A   Scattered Clouds
4:55 PM 69.8 °F 53.6 °F 56% 30.22 in 10.0 mi South 5.8 mph - N/A   Clear
4:56 PM 69.8 °F 53.6 °F 56% 30.22 in 10.0 mi South 5.8 mph - N/A   Clear
5:15 PM 69.8 °F 53.6 °F 56% 30.22 in 10.0 mi South 4.6 mph - N/A   Clear
5:39 PM 69.8 °F 53.6 °F 56% 30.21 in 10.0 mi SSE 4.6 mph - N/A   Clear
5:57 PM 69.8 °F 53.6 °F 56% 30.21 in 10.0 mi Calm Calm - N/A   Clear
6:15 PM 69.8 °F 53.6 °F 56% 30.20 in 10.0 mi Calm Calm - N/A   Clear
6:16 PM 69.8 °F 53.6 °F 56% 30.20 in 10.0 mi Calm Calm - N/A   Scattered Clouds
6:35 PM 69.8 °F 55.4 °F 60% 30.20 in 10.0 mi Calm Calm - N/A   Scattered Clouds
6:55 PM 68.0 °F 55.4 °F 64% 30.20 in 10.0 mi Calm Calm - N/A   Mostly Cloudy
7:00 PM 68.0 °F 57.2 °F 68% 30.20 in 10.0 mi Calm Calm - N/A   Mostly Cloudy
7:18 PM 66.2 °F 57.2 °F 73% 30.19 in 10.0 mi Calm Calm - N/A   Overcast
7:36 PM 66.2 °F 55.4 °F 68% 30.19 in 10.0 mi Calm Calm - N/A   Overcast
7:55 PM 66.2 °F 55.4 °F 68% 30.19 in 10.0 mi Calm Calm - N/A   Overcast
7:56 PM 66.2 °F 55.4 °F 68% 30.19 in 10.0 mi Calm Calm - N/A   Overcast
8:15 PM 66.2 °F 57.2 °F 73% 30.19 in 10.0 mi Calm Calm - N/A   Overcast
8:39 PM 66.2 °F 57.2 °F 73% 30.20 in 10.0 mi Calm Calm - N/A   Overcast
8:57 PM 64.4 °F 57.2 °F 77% 30.20 in 10.0 mi SE 4.6 mph - N/A   Overcast
9:15 PM 64.4 °F 57.2 °F 77% 30.19 in 10.0 mi Calm Calm - N/A   Overcast
9:16 PM 64.4 °F 57.2 °F 77% 30.19 in 10.0 mi SE 3.5 mph - N/A   Overcast
9:35 PM 64.4 °F 55.4 °F 73% 30.20 in 10.0 mi Calm Calm - N/A   Overcast
9:36 PM 64.4 °F 55.4 °F 73% 30.20 in 10.0 mi SSE 3.5 mph - N/A   Overcast
9:55 PM 64.4 °F 55.4 °F 73% 30.19 in 10.0 mi SSE 4.6 mph - N/A   Overcast
10:18 PM 64.4 °F 55.4 °F 73% 30.19 in 10.0 mi SE 3.5 mph - N/A   Overcast
10:36 PM 62.6 °F 55.4 °F 77% 30.18 in 10.0 mi SE 3.5 mph - N/A   Mostly Cloudy
10:55 PM 62.6 °F 55.4 °F 77% 30.19 in 10.0 mi Calm Calm - N/A   Mostly Cloudy
10:56 PM 62.6 °F 55.4 °F 77% 30.19 in 10.0 mi Calm Calm - N/A   Mostly Cloudy
11:15 PM 60.8 °F 55.4 °F 82% 30.18 in 10.0 mi Calm Calm - N/A   Scattered Clouds
11:39 PM 59.0 °F 55.4 °F 88% 30.19 in 10.0 mi Calm Calm - N/A   Scattered Clouds
11:57 PM 59.0 °F 55.4 °F 88% 30.19 in 10.0 mi Calm Calm - N/A   Mostly Cloudy